Regional Weather Roundup
Issued by NWS

Home | Current Version | Previous Version | Graphics & Text | Print | Product List | Glossary On
Versions: 1 2 3 4 5 6 7 8 9 10 11 12 13 14 15 16 17 18 19 20 21 22 23 24 25 26 27 28 29 30 31 32 33 34 35 36 37 38 39 40 41 42 43 44 45 46 47 48 49 50
733
ASUS43 KMKX 250511
RWRWI

WISCONSIN REGIONAL WEATHER ROUNDUP
NATIONAL WEATHER SERVICE MILWAUKEE/SULLIVAN WI
1200 AM CDT MON SEP 25 2017

NOTE: "FAIR" INDICATES FEW OR NO CLOUDS BELOW 12,000 FEET WITH NO
SIGNIFICANT WEATHER AND/OR OBSTRUCTIONS TO VISIBILITY.

WIZ001-002-006>008-014>016-023>028-250600-
NORTHWEST WISCONSIN

CITY           SKY/WX    TMP DP  RH WIND       PRES   REMARKS
SUPERIOR ARPT    N/A     63  63 100 SW5       29.87S FOG
ASHLAND        CLOUDY    71  63  75 S5        29.89S
HAYWARD        CLOUDY    71  64  78 S3        29.91F
SIREN          LGT RAIN  68  66  93 SW7       29.93R
CUMBERLAND     CLOUDY    70  63  78 SW6       29.93R
RICE LAKE      CLOUDY    74  63  68 S3        29.93R
CHETEK         CLOUDY    74  65  73 CALM      29.92S
LADYSMITH      CLEAR     73  61  65 S7        29.94S
EAU CLAIRE     PTCLDY    75  63  66 SW9       29.92R
MENOMONIE      PTCLDY    74  63  69 S6        29.92S
NEW RICHMOND   CLOUDY    70  63  78 W5        29.94R
OSCEOLA        CLOUDY    69  69 100 SW5       29.96R
$$

WIZ003>005-009-010-017-018-250600-
NORTH CENTRAL WISCONSIN

CITY           SKY/WX    TMP DP  RH WIND       PRES   REMARKS
MANITOWISH WTR NOT AVBL
ARBOR VITAE    CLEAR     72  61  68 S10       29.96F
WOODRUFF       CLEAR     72  61  68 S10       29.96F
RHINELANDER    CLEAR     71  61  70 S3        29.99S
EAGLE RIVER    CLEAR     68  58  71 S3        29.98S
LAND O LAKES   CLEAR     70  60  71 S5        30.00S
PHILLIPS       MOCLDY    71  60  69 S9        29.95R
TOMAHAWK       CLEAR     63  58  84 CALM      29.98S
MEDFORD        CLEAR     67  59  76 S7        29.97S
MERRILL        CLEAR     64  60  87 CALM      29.98S
$$

WIZ029-030-035-036-043>047-250600-
CENTRAL WISCONSIN

CITY           SKY/WX    TMP DP  RH WIND       PRES   REMARKS
WAUSAU         CLEAR     67  60  78 SE5       29.97S
MOSINEE        CLEAR     66  59  77 S5        29.99S
MARSHFIELD     CLEAR     68  59  73 S5        29.97S
STEVENS POINT  CLEAR     63  60  91 CALM      29.99S
WAUPACA        CLEAR     68  64  88 CALM      29.99S
WAUTOMA        CLEAR     63  61  93 CALM      29.99S
WISC RAPIDS    CLEAR     70  60  70 S5        29.98F
CAMP DOUGLAS   PTCLDY    67  60  80 S7        29.96S
$$

WIZ011>013-019>022-031-037>040-048>050-250600-
NORTHEAST WISCONSIN

CITY           SKY/WX    TMP DP  RH WIND       PRES   REMARKS
ANTIGO         CLEAR     66  61  85 S7        30.01S
SHAWANO        CLEAR     72  63  73 CALM      29.98S
OCONTO         CLEAR     67  62  83 CALM      29.98S
STURGEON BAY   CLEAR     71  61  70 S6        29.99F
GREEN BAY      CLEAR     70  63  78 S5        29.98F
MANITOWOC      CLEAR     65  62  90 E6        30.01S
APPLETON       CLEAR     70  55  60 S7        29.98S
CLINTONVILLE   CLEAR     70  63  78 S3        29.98S
OSHKOSH        CLEAR     69  61  75 S8        29.99S
$$

WIZ032>034-041-042-053>061-250600-
SOUTHWEST WISCONSIN

CITY           SKY/WX    TMP DP  RH WIND       PRES   REMARKS
LA CROSSE      CLEAR     76  65  68 SE5       29.93S
SPARTA         CLEAR     75  62  62 S3        29.96S
VIROQUA        CLEAR     72  62  71 S6        29.98S
BOSCOBEL       CLEAR     68  64  87 CALM      29.96S
PRAIRIE DU CHI CLEAR     72  61  69 E3        29.95S
PLATTEVILLE    CLEAR     72  63  73 SE7       29.99S
$$

WIZ056-057-062-063-064-067-068-250600-
SOUTH CENTRAL WISCONSIN

CITY           SKY/WX    TMP DP  RH WIND       PRES   REMARKS
REEDSBURG      CLEAR     66  62  86 CALM      29.97S
BARABOO/DELLS  CLEAR     70  58  66 S3        29.98F
LONE ROCK      CLEAR     66  63  90 CALM      29.97S
MINERAL POINT  CLEAR     72  63  73 SE6       30.00S
MADISON        CLEAR     74  60  61 S6        29.99S
MIDDLETON      CLEAR     66  62  88 CALM      30.00S
WATERTOWN      CLEAR     70  62  75 SE3       30.00S
MONROE         CLEAR     72  57  60 S7        30.00S
JANESVILLE     CLEAR     68  59  73 CALM      29.99S
$$

WIZ051-052-058>065-066-070>072-250600-
SOUTHEAST WISCONSIN

CITY           SKY/WX    TMP DP  RH WIND       PRES   REMARKS
MILWAUKEE      CLEAR     74  62  66 S6        30.00F
WAUKESHA       CLEAR     72  57  60 S3        30.02S
MILWAUKEE/TIMM CLEAR     66  57  72 CALM      30.01S
RACINE         CLEAR     71  65  81 S3        30.02F
BURLINGTON     CLEAR     63  62  99 CALM      30.01S
KENOSHA        CLEAR     70  61  73 SE5       30.01F
FOND DU LAC    CLEAR     70  59  68 S6        30.00S
SHEBOYGAN      CLEAR     65  63  93 CALM      30.00F
WEST BEND        N/A     63  61  94 CALM      30.01S
JUNEAU         CLEAR     67  60  78 SE3       30.01F
$$

LSZ147-162-250600-
LAKE SUPERIOR

STATION/POSITION TIME  TEMP    WIND        PRES    WAVE
                       AIR SEA DIR/SP/G            HT/PER
                 (UTC) (F)     (DEG/KT/KT) (MB)    (FT/S)
W MID LAKE BUOY  0350   63 55  190/ 10/ 12 1010.3F   1
DEVILS ISLAND    0500   67     190/  3/  4 1011.0F
PORT WING        0340   67     110/  5/  6 1011.5F
SAXON HARBOR     0430   77     220/  5/  9 1011.5R
$$

LMZ867-665-643>646-250600-
LAKE MICHIGAN

STATION/POSITION TIME  TEMP    WIND        PRES    WAVE
                       AIR SEA DIR/SP/G            HT/PER
                 (UTC) (F)     (DEG/KT/KT) (MB)    (FT/S)
S GREEN BAY BUOY 0400   74 69  180/ 10/ 14 1015.0
N MID LAKE BUOY  0450   70 67  170/ 12/ 14 1015.6F   1/ 4
NORTHPORT PIER   0440   72     150/  5/  9 1014.9S
KEWAUNEE LAKESHO 0448   67     180/  5/  6 1014.9F
SHEBOYGAN LAKESH 0500   71     200/  7/  7 1015.4F
PORT WASHINGTON  0430   71     170/  3/  4 1016.6F
ATWATER BUOY     0409   65 60  180/  6/  6 1016.2F
MILWAUKEE LAKESH 0450   70     150/  2/  3   N/A
S MID LAKE BUOY  0450   74 71  110/  8/  8 1016.1F   0
KENOSHA   LAKESH 0500   74     180/  7/ 10 1015.6
$$

TC  - TEMPERATURE IN CELSIUS
VSB - VISIBILITY IN STATUTE MILES
WCI - WIND CHILL INDEX
HX  - HEAT INDEX





USA.gov is the U.S. government's official web portal to all federal, state and local government web resources and services.